Weather History for Springfield, CO

Change the Weather History Date:

Wednesday, November 16, 2011

  Actual Average Record
Temperature  
Mean Temperature 33 °F -  
Max Temperature 44 °F 57 °F 75 °F (1999)
Min Temperature 21 °F 26 °F 4 °F (2014)
Degree Days  
Heating Degree Days 32 24  
Month to date heating degree days 367 326  
Since 1 July heating degree days 729 771  
Cooling Degree Days 0 0  
Month to date cooling degree days 0 0  
Year to date cooling degree days 1530 1028  
Moisture  
Dew Point 19 °F    
Average Humidity 61    
Maximum Humidity 85    
Minimum Humidity 36    
Precipitation  
Precipitation 0.00 in 0.02 in 0.29 in (2014)
Month to date precipitation 0.82 0.35  
Year to date precipitation 5.62 16.81  
Sea Level Pressure  
Sea Level Pressure 30.21 in    
Wind  
Wind Speed 6 mph (ESE)    
Max Wind Speed 14 mph    
Max Gust Speed 20 mph    
T = Trace of Precipitation, MM = Missing Value Source: NWS Daily Summary

Daily Weather History Graph

Daily Weather History Graph

Search for Another Location

Airport:

Trip Planner

Search our weather history database for the weather conditions in past years. The results will help you decide how hot, cold, wet, or windy it might be!

Date:

Astronomy

Nov. 16, 2011 Rise Set
Actual Time 6:30 AM MST 4:39 PM MST
Civil Twilight 6:02 AM MST 5:07 PM MST
Nautical Twilight 5:31 AM MST 5:38 PM MST
Astronomical Twilight 5:00 AM MST 6:09 PM MST
Moon 9:54 PM MST (11/16) 11:08 AM MST (11/16)
Length of Visible Light 11h 04m
Length of Day
10h 09m
Waning Gibbous, 69% of the Moon is Illuminated
Nov 16
Waning Gibbous
Nov 18
Last Quarter
Nov 24
New
Dec 2
First Quarter
Dec 10
Full

Hourly Weather History & Observations

Time (MST) Temp. Windchill Dew Point Humidity Pressure Visibility Wind Dir Wind Speed Gust Speed Precip Events Conditions
12:56 AM 30.0 °F - 21.0 °F 69% 29.93 in - Calm Calm - N/A   Unknown
1:56 AM 28.0 °F - 21.0 °F 75% 29.94 in - Calm Calm - N/A   Unknown
2:56 AM 30.0 °F 25.2 °F 24.1 °F 79% 29.97 in - North 4.6 mph - N/A   Unknown
3:56 AM 28.9 °F 21.1 °F 24.1 °F 82% 30.01 in - NNE 8.1 mph - N/A   Unknown
4:56 AM 30.0 °F 20.0 °F 24.1 °F 79% 30.04 in - East 12.7 mph - N/A   Unknown
5:56 AM 30.0 °F 19.5 °F 24.1 °F 79% 30.07 in - ESE 13.8 mph - N/A   Unknown
6:56 AM 28.0 °F 21.7 °F 24.1 °F 85% 30.14 in - ESE 5.8 mph - N/A   Unknown
7:56 AM 30.0 °F 22.4 °F 23.0 °F 75% 30.20 in - NE 8.1 mph - N/A   Unknown
8:56 AM 32.0 °F 25.6 °F 19.0 °F 59% 30.22 in - ESE 6.9 mph - N/A   Unknown
9:56 AM 36.0 °F 30.3 °F 19.0 °F 50% 30.22 in - ESE 6.9 mph - N/A   Unknown
10:56 AM 37.0 °F 33.3 °F 17.1 °F 44% 30.23 in - SSE 4.6 mph - N/A   Unknown
11:56 AM 41.0 °F - 17.1 °F 38% 30.23 in - North - - N/A   Unknown
12:56 PM 41.0 °F 39.0 °F 18.0 °F 40% 30.20 in - Variable 3.5 mph - N/A   Unknown
1:56 PM 42.1 °F - 18.0 °F 38% 30.22 in - Calm Calm - N/A   Unknown
2:56 PM 42.1 °F 37.7 °F 18.0 °F 38% 30.23 in - ENE 6.9 mph - N/A   Unknown
3:56 PM 39.0 °F 32.8 °F 17.1 °F 41% 30.27 in - East 9.2 mph - N/A   Unknown
4:56 PM 32.0 °F 25.6 °F 17.1 °F 54% 30.32 in - East 6.9 mph - N/A   Unknown
5:56 PM 30.0 °F 26.5 °F 17.1 °F 59% 30.35 in - ESE 3.5 mph - N/A   Unknown
6:56 PM 28.0 °F 22.8 °F 16.0 °F 61% 30.38 in - SSW 4.6 mph - N/A   Unknown
7:56 PM 27.0 °F - 14.0 °F 58% 30.39 in - Calm Calm - N/A   Unknown
8:56 PM 24.1 °F 16.0 °F 15.1 °F 69% 30.41 in - SW 6.9 mph - N/A   Unknown
9:56 PM 24.1 °F 18.2 °F 15.1 °F 69% 30.40 in - WSW 4.6 mph - N/A   Unknown
10:56 PM 23.0 °F 13.9 °F 14.0 °F 68% 30.39 in - WSW 8.1 mph - N/A   Unknown
11:56 PM 21.9 °F 15.7 °F 15.1 °F 75% 30.37 in - SW 4.6 mph - N/A   Unknown